FW8739 Weather Reports


time (UTC)temp
F
wind
direction
speed
knots
gust
knots
rain 1hr
in
rain 24hr
in
rain mn
in
humidity
%
barometer
mb
20260504100205 48 185 0.0 0.0 0.00 0.00 0.00 99 1011.2
20260504090128 51 188 0.0 0.0 0.00 0.00 0.00 99 1011.5
20260504081558 52 187 0.0 0.0 0.00 0.00 0.00 98 1011.3
20260504081054 52 186 0.0 0.0 0.00 0.00 0.00 98 1011.3
20260504080551 53 186 0.0 0.0 0.00 0.00 0.00 97 1011.3
20260504050404 58 183 0.0 0.0 0.00 0.00 0.00 84 1012.7
20260504045901 59 187 0.0 0.0 0.00 0.00 0.00 82 1012.9
20260504045356 59 179 0.0 0.0 0.00 0.00 0.00 82 1013.1
20260504044853 59 170 0.0 0.0 0.00 0.00 0.00 81 1013.0
20260504044350 60 185 0.0 0.0 0.00 0.00 0.00 79 1013.0
20260504043848 61 188 0.9 0.9 0.00 0.00 0.00 78 1012.9
20260504043344 60 181 0.9 0.9 0.00 0.00 0.00 78 1013.0
20260504042842 59 187 0.0 0.0 0.00 0.00 0.00 81 1013.2
20260504042338 60 136 0.0 0.9 0.00 0.00 0.00 78 1013.2
20260504041834 59 187 0.0 0.0 0.00 0.00 0.00 83 1013.2
20260504041331 59 181 0.0 0.0 0.00 0.00 0.00 82 1013.3
20260504040827 59 186 0.0 0.0 0.00 0.00 0.00 82 1013.2
20260504040325 59 186 0.0 0.0 0.00 0.00 0.00 83 1013.4
20260504035820 59 175 0.9 0.9 0.00 0.00 0.00 81 1013.2
20260504035318 57 178 0.0 0.0 0.00 0.00 0.00 87 1013.4
20260504034815 55 181 0.0 0.0 0.00 0.00 0.00 90 1013.5
20260504034313 55 181 0.0 0.0 0.00 0.00 0.00 91 1013.7
20260504033809 54 182 0.0 0.0 0.00 0.00 0.00 93 1013.7
20260504033307 54 181 0.0 0.0 0.00 0.00 0.00 92 1013.5
20260504032804 54 190 0.0 0.0 0.00 0.00 0.00 93 1013.6
20260504032301 54 183 0.0 0.0 0.00 0.00 0.00 93 1013.8
20260504031757 54 194 0.0 0.0 0.00 0.00 0.00 93 1013.6
20260504031255 54 184 0.0 0.0 0.00 0.00 0.00 93 1013.6
20260504030750 54 185 0.0 0.0 0.00 0.00 0.00 92 1013.6
20260504030248 54 186 0.0 0.0 0.00 0.00 0.00 92 1013.8
20260504025744 54 185 0.0 0.0 0.00 0.00 0.00 92 1013.6
20260504025241 54 190 0.0 0.0 0.00 0.00 0.00 91 1013.7
20260504024738 55 186 0.0 0.0 0.00 0.00 0.00 91 1013.5
20260504024235 55 183 0.0 0.0 0.00 0.00 0.00 91 1013.6
20260504023732 55 186 0.0 0.0 0.00 0.00 0.00 90 1013.5
20260504023228 55 188 0.0 0.0 0.00 0.00 0.00 90 1013.4
20260504022724 55 182 0.0 0.0 0.00 0.00 0.00 89 1013.4
20260504022220 55 189 0.0 0.0 0.00 0.00 0.00 89 1013.3
20260504021718 55 186 0.0 0.0 0.00 0.00 0.00 89 1013.1
20260504021215 56 186 0.0 0.0 0.00 0.00 0.00 88 1013.4
20260504020711 56 193 0.0 0.0 0.00 0.00 0.00 88 1013.3
20260504020208 57 187 0.0 0.0 0.00 0.00 0.00 87 1013.4
20260504015704 57 185 0.0 0.0 0.00 0.00 0.00 85 1013.4
20260504015201 57 194 0.0 0.0 0.00 0.00 0.00 84 1013.4
20260504014656 57 187 0.0 0.0 0.00 0.00 0.00 84 1013.3
20260504014154 58 186 0.0 0.0 0.00 0.00 0.00 83 1013.2
20260504013651 58 186 0.0 0.0 0.00 0.00 0.00 81 1013.3
20260504013148 59 186 0.0 0.0 0.00 0.00 0.00 80 1013.0
20260504012645 59 186 0.0 0.0 0.00 0.00 0.00 79 1013.2
20260504012143 60 186 0.0 0.0 0.00 0.00 0.00 78 1013.2
20260504011639 61 188 0.0 0.0 0.00 0.00 0.00 77 1013.2
20260504011136 61 199 0.0 0.0 0.00 0.00 0.00 75 1012.9
20260504010632 62 169 0.0 0.0 0.00 0.00 0.00 72 1013.0
20260504010128 63 188 0.0 0.0 0.00 0.00 0.00 72 1012.9
20260504005625 64 204 0.0 0.0 0.00 0.00 0.00 71 1013.0
20260504005122 64 189 0.0 0.0 0.00 0.00 0.00 67 1012.9
20260504004620 65 188 0.0 0.0 0.00 0.00 0.00 65 1012.7
20260504004117 66 190 0.0 0.0 0.00 0.00 0.00 64 1012.9
20260504003613 67 196 0.0 0.0 0.00 0.00 0.00 62 1012.9
20260504003110 68 176 0.0 0.0 0.00 0.00 0.00 59 1012.7
20260504002607 69 182 0.0 0.0 0.00 0.00 0.00 60 1013.0
20260504002104 70 186 0.0 0.0 0.00 0.00 0.00 58 1012.9
20260504001602 70 190 0.0 0.0 0.00 0.00 0.00 60 1012.8
20260504001057 71 186 0.0 0.0 0.00 0.00 0.00 60 1012.8
20260504000555 72 247 0.0 0.0 0.00 0.00 0.00 54 1012.9
20260504000052 73 227 1.7 1.7 0.00 0.00 0.00 49 1012.7
20260503235550 73 215 1.7 1.7 0.00 0.00 0.00 49 1012.9
20260503235047 74 158 0.9 0.9 0.00 0.00 0.00 51 1012.9
20260503234545 75 174 1.7 1.7 0.00 0.00 0.00 46 1012.8
20260503234043 75 179 0.9 0.9 0.00 0.00 0.00 47 1012.9
20260503233539 76 17 1.7 4.3 0.00 0.00 0.00 49 1012.9
20260503233035 76 149 0.0 0.9 0.00 0.00 0.00 46 1013.1
20260503232532 75 128 0.0 0.9 0.00 0.00 0.00 46 1013.0
20260503232030 75 248 2.6 2.6 0.00 0.00 0.00 48 1013.0
20260503231527 75 177 0.0 0.0 0.00 0.00 0.00 47 1013.0
20260503231024 75 184 0.9 1.7 0.00 0.00 0.00 45 1013.1
20260503230520 75 174 1.7 2.6 0.00 0.00 0.00 44 1013.2
20260503230018 75 307 1.7 2.6 0.00 0.00 0.00 47 1013.3
20260503225515 75 203 2.6 2.6 0.00 0.00 0.00 45 1013.4
20260503225010 75 200 1.7 1.7 0.00 0.00 0.00 47 1013.2
20260503224508 75 203 0.0 0.9 0.00 0.00 0.00 48 1013.3
20260503224005 75 133 0.9 0.9 0.00 0.00 0.00 46 1013.3
20260503223503 75 233 0.9 0.9 0.00 0.00 0.00 44 1013.4
20260503222958 75 188 0.0 0.9 0.00 0.00 0.00 45 1013.4
20260503222457 75 191 0.9 1.7 0.00 0.00 0.00 46 1013.5
20260503221954 75 77 2.6 2.6 0.00 0.00 0.00 44 1013.6
20260503221453 75 184 0.9 0.9 0.00 0.00 0.00 46 1013.5
20260503220950 75 163 0.9 1.7 0.00 0.00 0.00 45 1013.4
20260503220446 75 147 2.6 2.6 0.00 0.00 0.00 43 1013.8
20260503215943 75 145 0.9 0.9 0.00 0.00 0.00 42 1013.7
20260503215439 75 211 1.7 2.6 0.00 0.00 0.00 41 1013.8
20260503214937 76 176 1.7 1.7 0.00 0.00 0.00 44 1013.9
20260503214435 75 191 1.7 1.7 0.00 0.00 0.00 42 1014.0
20260503213932 75 246 1.7 1.7 0.00 0.00 0.00 43 1014.0
20260503213430 76 6 2.6 4.3 0.00 0.00 0.00 42 1014.5
20260503212926 76 67 4.3 5.2 0.00 0.00 0.00 40 1014.1
20260503212424 76 190 0.9 0.9 0.00 0.00 0.00 40 1014.0
20260503211921 76 172 3.5 6.1 0.00 0.00 0.00 39 1014.4
20260503211418 78 82 1.7 1.7 0.00 0.00 0.00 39 1014.4
20260503210913 78 142 1.7 2.6 0.00 0.00 0.00 37 1014.8
20260503210410 78 196 1.7 1.7 0.00 0.00 0.00 39 1014.8
20260503205904 79 153 3.5 4.3 0.00 0.00 0.00 38 1014.7
20260503205402 78 219 2.6 2.6 0.00 0.00 0.00 39 1014.9
20260503204858 77 201 0.9 0.9 0.00 0.00 0.00 38 1014.9
20260503204356 77 121 2.6 5.2 0.00 0.00 0.00 37 1015.0
20260503203853 77 97 3.5 4.3 0.00 0.00 0.00 37 1015.4
20260503203350 78 224 2.6 2.6 0.00 0.00 0.00 39 1015.1
20260503202847 77 164 0.9 1.7 0.00 0.00 0.00 38 1015.5
20260503202345 76 284 4.3 7.8 0.00 0.00 0.00 39 1015.4
20260503201843 76 214 0.0 0.9 0.00 0.00 0.00 38 1015.7
20260503201340 78 281 2.6 2.6 0.00 0.00 0.00 42 1015.8
20260503200837 77 42 2.6 2.6 0.00 0.00 0.00 39 1015.7
20260503200333 77 126 1.7 1.7 0.00 0.00 0.00 37 1016.0
20260503195830 76 290 1.7 1.7 0.00 0.00 0.00 39 1016.1
20260503195327 77 133 1.7 1.7 0.00 0.00 0.00 38 1016.0
20260503194824 77 238 1.7 2.6 0.00 0.00 0.00 37 1016.1
20260503194320 78 191 2.6 4.3 0.00 0.00 0.00 38 1016.1
20260503193816 77 87 0.9 0.9 0.00 0.00 0.00 40 1016.3
20260503193312 76 318 4.3 6.1 0.00 0.00 0.00 39 1016.3
20260503192808 76 12 0.9 1.7 0.00 0.00 0.00 37 1016.4
20260503192305 76 33 3.5 5.2 0.00 0.00 0.00 40 1016.5
20260503191800 75 209 0.9 0.9 0.00 0.00 0.00 39 1016.5
20260503191257 77 336 3.5 8.7 0.00 0.00 0.00 41 1016.8
20260503190754 76 251 0.9 1.7 0.00 0.00 0.00 41 1016.7
20260503190251 76 31 0.9 1.7 0.00 0.00 0.00 40 1017.0
20260503185748 75 158 1.7 2.6 0.00 0.00 0.00 40 1017.0
20260503185244 75 266 2.6 5.2 0.00 0.00 0.00 37 1017.0
20260503184738 75 121 1.7 1.7 0.00 0.00 0.00 42 1016.8
20260503184235 75 228 1.7 2.6 0.00 0.00 0.00 38 1017.4
20260503183731 75 193 2.6 4.3 0.00 0.00 0.00 39 1017.5
20260503183229 74 193 2.6 4.3 0.00 0.00 0.00 40 1017.5
20260503182727 73 40 5.2 6.1 0.00 0.00 0.00 39 1017.5
20260503182226 73 88 1.7 1.7 0.00 0.00 0.00 40 1017.6
20260503181722 74 226 2.6 4.3 0.00 0.00 0.00 42 1017.8
20260503181219 73 159 0.9 0.9 0.00 0.00 0.00 38 1017.9
20260503180715 73 157 1.7 1.7 0.00 0.00 0.00 43 1018.2
20260503180214 73 221 3.5 4.3 0.00 0.00 0.00 41 1018.3
20260503175710 73 183 1.7 1.7 0.00 0.00 0.00 43 1018.4
20260503175208 72 166 1.7 1.7 0.00 0.00 0.00 40 1018.6
20260503174704 73 183 0.9 1.7 0.00 0.00 0.00 40 1018.7
20260503174201 72 197 0.9 0.9 0.00 0.00 0.00 44 1019.2
20260503173656 72 111 1.7 1.7 0.00 0.00 0.00 39 1019.0
20260503173153 71 200 1.7 1.7 0.00 0.00 0.00 42 1019.2
20260503172650 72 234 1.7 1.7 0.00 0.00 0.00 40 1019.2
20260503172147 71 188 0.9 0.9 0.00 0.00 0.00 48 1019.4
20260503171643 71 221 2.6 4.3 0.00 0.00 0.00 42 1019.7
20260503171141 70 221 1.7 1.7 0.00 0.00 0.00 43 1019.5
20260503170638 70 261 2.6 4.3 0.00 0.00 0.00 45 1019.6
20260503170135 70 76 2.6 2.6 0.00 0.00 0.00 45 1019.4
20260503150526 61 188 1.7 2.6 0.00 0.00 0.00 62 1021.0
20260503131419 39 187 0.0 0.0 0.00 0.00 0.00 99 1021.6
20260503130916 38 187 0.0 0.0 0.00 0.00 0.00 99 1021.8
20260503130414 37 187 0.0 0.0 0.00 0.00 0.00 99 1022.2
20260503110817 29 187 0.0 0.0 0.00 0.00 0.00 99 1021.2
20260503110314 30 189 0.0 0.0 0.00 0.00 0.00 99 1021.2